Language: 


Des rapports , des résumés tant et plus, au choix de chacun....


Données Historiques de Météogheer
Journalier Rapport pour Aoûut 8, 2017 Unitée:  Métrique    Impériale   Les deux
Suivant Jour »
Journalier Hebdomadaire Mensuel Annuel Sur mesure
  Max: Min: Moyenne:
Température: 24.1 °C 12.6 °C 16.4 °C
Point de rosée: 19.0 °C 12.0 °C 14.1 °C
Humidité: 97% 57% 86%
Vent: 19.8km/h 0.0km/h 2.5km/h
Rafales: 23.0km/h - -
Vent- - SSW
Pression: 1014.1 hPa 1008.0 hPa -
Pluie: 2.8 mm    
Historical Graphs
 
 
Données tabulaires pour Aoûut 8, 2017
Heure Température Point de rosée Pression Vent Vent Rafales Humidité Pluie Taux (Horaire) Conditions
00:01 14.9 °C 12.0 °C 1014.1 hPa NNE 5.0 km/h 7.6 km/h 80% 0.0 mm
00:06 14.9 °C 12.0 °C 1014.1 hPa NNE 6.4 km/h 7.9 km/h 80% 0.0 mm
00:11 14.8 °C 12.0 °C 1014.1 hPa NE 5.5 km/h 7.9 km/h 80% 0.0 mm
00:16 14.8 °C 12.0 °C 1014.1 hPa Calm   6.4 km/h 80% 0.0 mm
00:21 14.7 °C 12.0 °C 1014.1 hPa Calm   6.9 km/h 81% 0.0 mm
00:26 14.7 °C 12.0 °C 1014.1 hPa Calm   6.9 km/h 81% 0.0 mm
00:31 14.7 °C 12.0 °C 1014.1 hPa Calm   6.9 km/h 81% 0.0 mm
00:37 14.7 °C 12.0 °C 1014.1 hPa Calm   6.4 km/h 81% 0.0 mm
00:42 14.7 °C 12.0 °C 1014.1 hPa NE 5.5 km/h 8.7 km/h 81% 0.0 mm
00:47 14.7 °C 12.0 °C 1014.1 hPa Calm   7.9 km/h 82% 0.0 mm
00:52 14.7 °C 12.0 °C 1014.1 hPa NE 3.2 km/h 8.7 km/h 82% 0.0 mm
00:57 14.7 °C 12.0 °C 1013.1 hPa NE 6.4 km/h 8.7 km/h 82% 0.0 mm
01:02 14.7 °C 12.0 °C 1013.1 hPa NNE 6.1 km/h 7.9 km/h 82% 0.0 mm
01:07 14.7 °C 12.0 °C 1013.1 hPa NNE 6.4 km/h 9.0 km/h 82% 0.0 mm
01:12 14.7 °C 12.0 °C 1013.1 hPa NE 2.6 km/h 9.3 km/h 83% 0.0 mm
01:17 14.7 °C 12.0 °C 1013.1 hPa NE 5.5 km/h 9.3 km/h 83% 0.0 mm
01:22 14.7 °C 12.0 °C 1013.1 hPa NE 7.6 km/h 13.7 km/h 84% 0.0 mm
01:28 14.8 °C 12.0 °C 1012.1 hPa NE 7.9 km/h 13.7 km/h 84% 0.0 mm
01:33 14.8 °C 12.0 °C 1012.1 hPa North 2.6 km/h 11.1 km/h 84% 0.0 mm
01:38 14.8 °C 12.0 °C 1012.1 hPa NE 4.0 km/h 11.1 km/h 84% 0.0 mm
01:43 14.7 °C 13.0 °C 1013.1 hPa Calm   8.7 km/h 85% 0.0 mm
01:48 14.6 °C 13.0 °C 1013.1 hPa Calm   7.6 km/h 85% 0.0 mm
01:53 14.5 °C 12.0 °C 1013.1 hPa NNE 6.4 km/h 7.6 km/h 84% 0.0 mm
01:58 14.5 °C 13.0 °C 1013.1 hPa Calm   6.9 km/h 85% 0.0 mm
02:03 14.5 °C 13.0 °C 1013.1 hPa Calm   9.3 km/h 85% 0.0 mm
02:08 14.3 °C 12.0 °C 1013.1 hPa Calm   9.3 km/h 85% 0.0 mm
02:13 14.3 °C 12.0 °C 1013.1 hPa ENE 6.9 km/h 8.7 km/h 86% 0.0 mm
02:18 14.3 °C 13.0 °C 1013.1 hPa Calm   8.7 km/h 87% 0.0 mm
02:23 14.2 °C 13.0 °C 1013.1 hPa Calm   7.2 km/h 87% 0.0 mm
02:28 14.2 °C 13.0 °C 1013.1 hPa Calm   6.1 km/h 87% 0.0 mm
02:33 14.1 °C 12.0 °C 1013.1 hPa Calm   5.0 km/h 87% 0.0 mm
02:38 13.9 °C 12.0 °C 1013.1 hPa Calm     87% 0.0 mm
02:42 13.8 °C 12.0 °C 1012.1 hPa Calm     87% 0.0 mm
02:47 13.7 °C 12.0 °C 1012.1 hPa Calm     87% 0.0 mm
02:52 13.6 °C 12.0 °C 1012.1 hPa Calm     88% 0.0 mm
02:58 13.5 °C 12.0 °C 1012.1 hPa Calm   3.5 km/h 88% 0.0 mm
03:03 13.6 °C 12.0 °C 1012.1 hPa Calm   3.5 km/h 89% 0.0 mm
03:08 13.6 °C 12.0 °C 1012.1 hPa Calm   6.1 km/h 90% 0.0 mm
03:13 13.5 °C 12.0 °C 1012.1 hPa Calm   6.1 km/h 90% 0.0 mm
03:18 13.5 °C 12.0 °C 1012.1 hPa Calm     90% 0.0 mm
03:23 13.4 °C 12.0 °C 1012.1 hPa Calm     90% 0.0 mm
03:33 13.3 °C 12.0 °C 1011.1 hPa North 4.0 km/h 5.8 km/h 91% 0.0 mm
03:38 13.3 °C 12.0 °C 1011.1 hPa Calm   5.8 km/h 91% 0.0 mm
03:43 13.2 °C 12.0 °C 1011.1 hPa Calm   5.0 km/h 92% 0.0 mm
03:53 13.2 °C 12.0 °C 1011.1 hPa NE 5.8 km/h 6.9 km/h 92% 0.0 mm
03:58 13.2 °C 13.0 °C 1011.1 hPa Calm   7.9 km/h 93% 0.0 mm
04:03 13.1 °C 12.0 °C 1011.1 hPa Calm   7.9 km/h 93% 0.0 mm
04:08 13.0 °C 12.0 °C 1011.1 hPa Calm   7.2 km/h 93% 0.0 mm
04:13 12.9 °C 12.0 °C 1011.1 hPa NE 3.5 km/h 6.1 km/h 94% 0.0 mm
04:18 12.9 °C 12.0 °C 1011.1 hPa Calm   5.5 km/h 94% 0.0 mm
04:23 12.9 °C 12.0 °C 1011.1 hPa Calm   5.5 km/h 94% 0.0 mm
04:28 12.8 °C 12.0 °C 1011.1 hPa Calm   4.3 km/h 94% 0.0 mm
04:34 12.7 °C 12.0 °C 1011.1 hPa NNE 4.0 km/h 4.7 km/h 93% 0.0 mm
04:39 12.7 °C 12.0 °C 1011.1 hPa Calm   4.7 km/h 94% 0.0 mm
04:44 12.7 °C 12.0 °C 1011.1 hPa Calm   4.3 km/h 94% 0.0 mm
04:49 12.7 °C 12.0 °C 1011.1 hPa Calm   2.6 km/h 94% 0.0 mm
04:54 12.7 °C 12.0 °C 1011.1 hPa Calm     94% 0.0 mm
04:59 12.6 °C 12.0 °C 1010.0 hPa NNE 5.5 km/h 5.5 km/h 94% 0.0 mm
05:04 12.6 °C 12.0 °C 1010.0 hPa North 4.3 km/h 6.4 km/h 94% 0.0 mm
05:09 12.6 °C 12.0 °C 1010.0 hPa Calm   6.9 km/h 95% 0.0 mm
05:16 12.7 °C 12.0 °C 1010.0 hPa NNE 3.2 km/h 7.6 km/h 95% 0.0 mm
05:22 12.7 °C 12.0 °C 1010.0 hPa NE 6.9 km/h 7.6 km/h 95% 0.0 mm
05:24 12.7 °C 13.0 °C 1010.0 hPa NNE 2.1 km/h 6.9 km/h 96% 0.0 mm
05:27 12.7 °C 13.0 °C 1010.0 hPa Calm   6.9 km/h 96% 0.0 mm
05:28 12.7 °C 12.0 °C 1010.0 hPa Calm   6.9 km/h 95% 0.0 mm
05:30 12.7 °C 12.0 °C 1010.0 hPa Calm   6.9 km/h 95% 0.0 mm
05:31 12.7 °C 12.0 °C 1010.0 hPa Calm   6.9 km/h 95% 0.0 mm
05:36 12.7 °C 13.0 °C 1010.0 hPa North 3.2 km/h 5.5 km/h 96% 0.0 mm
05:41 12.7 °C 13.0 °C 1010.0 hPa North 3.5 km/h 5.5 km/h 96% 0.0 mm
05:46 12.7 °C 13.0 °C 1010.0 hPa NE 4.0 km/h 5.5 km/h 96% 0.0 mm
05:52 12.7 °C 13.0 °C 1010.0 hPa NNE 6.9 km/h 6.9 km/h 96% 0.0 mm
05:57 12.7 °C 13.0 °C 1009.0 hPa North 5.0 km/h 6.9 km/h 96% 0.0 mm
06:02 12.7 °C 13.0 °C 1009.0 hPa NNE 3.5 km/h 6.4 km/h 96% 0.0 mm
06:07 12.7 °C 13.0 °C 1009.0 hPa Calm   6.1 km/h 96% 0.0 mm
06:12 12.7 °C 13.0 °C 1010.0 hPa Calm   4.7 km/h 96% 0.0 mm
06:17 12.7 °C 13.0 °C 1010.0 hPa Calm     96% 0.0 mm
06:22 12.8 °C 13.0 °C 1010.0 hPa Calm     96% 0.0 mm
06:28 12.9 °C 13.0 °C 1009.0 hPa Calm     96% 0.0 mm
06:33 13.0 °C 13.0 °C 1009.0 hPa Calm     96% 0.0 mm
06:38 13.1 °C 13.0 °C 1009.0 hPa NNW 5.5 km/h 6.1 km/h 96% 0.0 mm
06:43 13.2 °C 13.0 °C 1009.0 hPa ENE 5.8 km/h 7.9 km/h 97% 0.0 mm
06:48 13.3 °C 13.0 °C 1009.0 hPa NE 1.8 km/h 7.9 km/h 96% 0.0 mm
06:53 13.4 °C 13.0 °C 1009.0 hPa Calm   9.0 km/h 97% 0.0 mm
06:58 13.5 °C 13.0 °C 1009.0 hPa NNE 4.0 km/h 9.0 km/h 97% 0.0 mm
07:03 13.5 °C 13.0 °C 1009.0 hPa North 1.8 km/h 7.6 km/h 97% 0.0 mm
07:08 13.5 °C 13.0 °C 1009.0 hPa Calm   5.5 km/h 97% 0.0 mm
07:13 13.7 °C 13.0 °C 1009.0 hPa Calm   4.7 km/h 97% 0.0 mm
07:18 13.7 °C 13.0 °C 1009.0 hPa Calm   6.4 km/h 96% 0.0 mm
07:23 13.7 °C 13.0 °C 1009.0 hPa North 4.7 km/h 6.4 km/h 97% 0.0 mm
07:28 13.8 °C 13.0 °C 1009.0 hPa Calm   5.8 km/h 97% 0.0 mm
07:33 13.9 °C 14.0 °C 1009.0 hPa Calm   4.3 km/h 96% 0.0 mm
07:38 14.0 °C 14.0 °C 1009.0 hPa ENE 1.4 km/h 2.6 km/h 96% 0.0 mm
07:43 14.2 °C 14.0 °C 1009.0 hPa Calm   2.6 km/h 96% 0.0 mm
07:48 14.3 °C 14.0 °C 1009.0 hPa Calm   1.8 km/h 96% 0.0 mm
07:53 14.4 °C 14.0 °C 1009.0 hPa Calm   2.6 km/h 96% 0.0 mm
07:58 14.5 °C 14.0 °C 1009.0 hPa NNE 2.1 km/h 3.2 km/h 96% 0.0 mm
08:03 14.5 °C 14.0 °C 1009.0 hPa NNE 6.9 km/h 7.2 km/h 96% 0.0 mm
08:08 14.6 °C 14.0 °C 1009.0 hPa Calm   8.7 km/h 96% 0.0 mm
08:09 14.6 °C 14.0 °C 1009.0 hPa Calm   8.7 km/h 96% 0.0 mm
08:14 14.7 °C 14.0 °C 1009.0 hPa Calm   8.7 km/h 96% 0.0 mm
08:19 14.8 °C 14.0 °C 1009.0 hPa Calm   5.8 km/h 96% 0.0 mm
08:24 14.9 °C 15.0 °C 1009.0 hPa Calm   5.8 km/h 96% 0.0 mm
08:29 15.0 °C 14.0 °C 1009.0 hPa Calm   5.8 km/h 95% 0.0 mm
08:34 15.1 °C 14.0 °C 1009.0 hPa Calm   1.4 km/h 95% 0.0 mm
08:39 15.3 °C 15.0 °C 1009.0 hPa Calm   1.4 km/h 95% 0.0 mm
08:44 15.4 °C 15.0 °C 1009.0 hPa Calm     95% 0.0 mm
08:49 15.4 °C 14.0 °C 1009.0 hPa Calm   4.3 km/h 94% 0.0 mm
08:54 15.5 °C 15.0 °C 1009.0 hPa Calm   4.3 km/h 94% 0.0 mm
08:59 15.6 °C 15.0 °C 1009.0 hPa Calm     94% 0.0 mm
09:04 15.8 °C 15.0 °C 1009.0 hPa Calm     94% 0.0 mm
09:09 15.8 °C 15.0 °C 1009.0 hPa Calm   4.7 km/h 94% 0.0 mm
09:14 15.9 °C 15.0 °C 1009.0 hPa Calm   4.7 km/h 94% 0.0 mm
09:19 16.1 °C 15.0 °C 1009.0 hPa Calm   4.0 km/h 93% 0.0 mm
09:24 16.2 °C 15.0 °C 1009.0 hPa Calm     93% 0.0 mm
09:29 16.2 °C 15.0 °C 1008.0 hPa Calm   2.6 km/h 93% 0.0 mm
09:30 16.2 °C 15.0 °C 1008.0 hPa Calm   2.6 km/h 93% 0.0 mm
09:35 16.2 °C 15.0 °C 1008.0 hPa NNE 4.0 km/h 4.0 km/h 92% 0.0 mm
09:40 16.3 °C 15.0 °C 1008.0 hPa North 1.8 km/h 4.0 km/h 92% 0.0 mm
09:45 16.3 °C 15.0 °C 1008.0 hPa Calm   3.2 km/h 92% 0.0 mm
09:50 16.4 °C 15.0 °C 1008.0 hPa Calm   1.8 km/h 92% 0.0 mm
09:55 16.5 °C 15.0 °C 1009.0 hPa Calm     92% 0.0 mm
10:00 16.5 °C 15.0 °C 1009.0 hPa Calm     92% 0.0 mm
10:05 16.5 °C 15.0 °C 1009.0 hPa Calm   4.3 km/h 91% 0.0 mm
10:11 16.6 °C 15.0 °C 1008.0 hPa Calm   4.3 km/h 91% 0.0 mm
10:16 16.6 °C 15.0 °C 1008.0 hPa Calm   4.3 km/h 91% 0.0 mm
10:21 16.6 °C 15.0 °C 1008.0 hPa Calm   4.3 km/h 91% 0.0 mm
10:26 16.6 °C 15.0 °C 1009.0 hPa Calm     90% 0.0 mm
10:31 16.6 °C 15.0 °C 1009.0 hPa Calm     90% 0.0 mm
10:36 16.6 °C 15.0 °C 1009.0 hPa Calm     91% 0.0 mm
10:41 16.6 °C 15.0 °C 1009.0 hPa Calm     91% 0.0 mm
10:46 16.6 °C 15.0 °C 1009.0 hPa Calm     91% 0.0 mm
10:51 16.6 °C 15.0 °C 1009.0 hPa Calm     91% 0.0 mm
10:56 16.5 °C 15.0 °C 1009.0 hPa Calm   6.9 km/h 91% 0.0 mm
11:01 16.5 °C 15.0 °C 1009.0 hPa Calm   6.9 km/h 91% 0.0 mm
11:06 16.5 °C 15.0 °C 1009.0 hPa Calm   3.2 km/h 91% 0.0 mm
11:11 16.5 °C 15.0 °C 1009.0 hPa Calm   3.2 km/h 91% 0.0 mm
11:16 16.4 °C 15.0 °C 1009.0 hPa Calm     91% 0.0 mm
11:21 16.4 °C 15.0 °C 1009.0 hPa Calm   2.1 km/h 92% 0.0 mm
11:26 16.3 °C 15.0 °C 1009.0 hPa Calm   2.1 km/h 92% 0.0 mm
11:31 16.3 °C 15.0 °C 1009.0 hPa Calm     92% 0.0 mm
11:36 16.3 °C 15.0 °C 1009.0 hPa Calm     92% 0.0 mm
11:41 16.3 °C 15.0 °C 1009.0 hPa Calm     92% 0.0 mm
11:46 16.3 °C 15.0 °C 1009.0 hPa Calm     92% 0.0 mm
11:51 16.3 °C 15.0 °C 1009.0 hPa Calm     92% 0.0 mm
11:56 16.3 °C 15.0 °C 1010.0 hPa Calm     92% 0.0 mm
12:01 16.3 °C 15.0 °C 1010.0 hPa Calm     92% 0.0 mm
12:06 16.4 °C 15.0 °C 1010.0 hPa Calm     93% 0.0 mm
12:11 16.4 °C 15.0 °C 1009.0 hPa Calm     93% 0.0 mm
12:16 16.5 °C 16.0 °C 1009.0 hPa WSW 6.1 km/h 6.1 km/h 93% 0.3 mm
12:21 16.5 °C 16.0 °C 1009.0 hPa West 5.0 km/h 6.1 km/h 94% 0.3 mm
12:26 16.6 °C 16.0 °C 1010.0 hPa WSW 6.9 km/h 9.7 km/h 94% 0.3 mm
12:31 16.7 °C 16.0 °C 1010.0 hPa West 5.0 km/h 14.0 km/h 94% 0.5 mm
12:36 16.9 °C 16.0 °C 1010.0 hPa WSW 7.6 km/h 14.0 km/h 95% 0.5 mm
12:41 17.0 °C 16.0 °C 1009.0 hPa WSW 4.7 km/h 11.9 km/h 94% 0.5 mm
12:46 17.2 °C 16.0 °C 1009.0 hPa West 9.3 km/h 12.2 km/h 94% 0.5 mm
12:52 17.1 °C 16.0 °C 1009.0 hPa SW 7.6 km/h 15.4 km/h 94% 0.8 mm
12:57 17.4 °C 16.0 °C 1009.0 hPa West 10.5 km/h 15.4 km/h 94% 0.8 mm
13:02 17.7 °C 17.0 °C 1009.0 hPa West 9.0 km/h 14.0 km/h 94% 0.8 mm
13:07 18.7 °C 18.0 °C 1009.0 hPa WSW 15.4 km/h 16.6 km/h 94% 0.8 mm
13:12 18.8 °C 18.0 °C 1009.0 hPa WSW 17.7 km/h 17.7 km/h 93% 0.5 mm
13:17 19.0 °C 18.0 °C 1009.0 hPa WNW 8.7 km/h 19.5 km/h 91% 0.5 mm
13:22 19.1 °C 17.0 °C 1009.0 hPa WSW 10.8 km/h 19.5 km/h 89% 0.5 mm
13:27 19.1 °C 17.0 °C 1009.0 hPa WNW 11.9 km/h 16.3 km/h 89% 0.3 mm
13:32 19.5 °C 18.0 °C 1009.0 hPa West 8.7 km/h 14.0 km/h 88% 0.3 mm
13:37 20.8 °C 19.0 °C 1009.0 hPa West 9.3 km/h 16.9 km/h 87% 0.3 mm
13:42 21.2 °C 18.0 °C 1008.0 hPa NNW 6.9 km/h 16.9 km/h 83% 0.3 mm
13:47 20.6 °C 17.0 °C 1008.0 hPa West 7.9 km/h 14.3 km/h 79% 0.3 mm
13:52 20.2 °C 16.0 °C 1008.0 hPa West 11.1 km/h 14.3 km/h 78% 0.0 mm
13:57 20.4 °C 16.0 °C 1009.0 hPa West 6.1 km/h 14.0 km/h 78% 0.0 mm
14:02 21.2 °C 17.0 °C 1009.0 hPa NW 5.8 km/h 14.3 km/h 76% 0.0 mm
14:07 22.0 °C 18.0 °C 1009.0 hPa West 10.5 km/h 14.3 km/h 75% 0.0 mm
14:12 21.9 °C 17.0 °C 1008.0 hPa WNW 6.4 km/h 14.0 km/h 71% 0.0 mm
14:17 21.8 °C 16.0 °C 1008.0 hPa Calm   13.7 km/h 70% 0.0 mm
14:22 21.9 °C 16.0 °C 1008.0 hPa Calm   13.0 km/h 70% 0.0 mm
14:27 21.9 °C 16.0 °C 1008.0 hPa NNW 9.0 km/h 9.0 km/h 67% 0.0 mm
14:32 22.1 °C 16.0 °C 1008.0 hPa Calm   12.2 km/h 67% 0.0 mm
14:37 22.0 °C 16.0 °C 1008.0 hPa Calm   12.2 km/h 67% 0.0 mm
14:42 23.4 °C 17.0 °C 1008.0 hPa West 5.5 km/h 9.3 km/h 66% 0.0 mm
14:47 24.0 °C 17.0 °C 1008.0 hPa West 6.4 km/h 8.7 km/h 63% 0.0 mm
14:52 24.1 °C 15.0 °C 1008.0 hPa Calm   12.2 km/h 58% 0.0 mm
14:57 23.6 °C 15.0 °C 1008.0 hPa Calm   12.2 km/h 58% 0.0 mm
15:02 22.9 °C 14.0 °C 1008.0 hPa NNW 5.8 km/h 10.1 km/h 57% 0.0 mm
15:07 22.6 °C 14.0 °C 1008.0 hPa WNW 5.8 km/h 5.8 km/h 58% 0.0 mm
15:12 22.2 °C 14.0 °C 1008.0 hPa Calm   5.8 km/h 59% 0.0 mm
15:17 22.1 °C 14.0 °C 1008.0 hPa West 8.7 km/h 10.1 km/h 60% 0.0 mm
15:22 22.2 °C 14.0 °C 1008.0 hPa West 6.9 km/h 12.6 km/h 60% 0.0 mm
15:27 22.3 °C 14.0 °C 1008.0 hPa WNW 11.1 km/h 12.6 km/h 61% 0.0 mm
15:32 22.2 °C 14.0 °C 1008.0 hPa NNW 5.5 km/h 11.6 km/h 59% 0.0 mm
15:37 22.4 °C 14.0 °C 1008.0 hPa NNW 5.8 km/h 11.6 km/h 60% 0.0 mm
15:42 22.2 °C 14.0 °C 1009.0 hPa WNW 8.7 km/h 10.5 km/h 59% 0.0 mm
15:47 22.1 °C 14.0 °C 1009.0 hPa West 1.4 km/h 14.0 km/h 62% 0.0 mm
15:52 22.0 °C 14.0 °C 1009.0 hPa West 5.0 km/h 14.0 km/h 62% 0.0 mm
15:57 21.7 °C 14.0 °C 1009.0 hPa Calm   13.7 km/h 60% 0.0 mm
16:02 21.7 °C 14.0 °C 1009.0 hPa Calm   13.7 km/h 61% 0.0 mm
16:07 21.5 °C 14.0 °C 1009.0 hPa NNW 3.2 km/h 10.5 km/h 62% 0.0 mm
16:13 21.4 °C 13.0 °C 1009.0 hPa Calm   10.5 km/h 60% 0.0 mm
16:18 21.1 °C 13.0 °C 1009.0 hPa West 8.7 km/h 9.3 km/h 62% 0.0 mm
16:23 20.9 °C 13.0 °C 1009.0 hPa NW 3.2 km/h 9.3 km/h 62% 0.0 mm
16:28 20.8 °C 13.0 °C 1009.0 hPa WNW 3.2 km/h 9.3 km/h 63% 0.0 mm
16:33 20.7 °C 13.0 °C 1009.0 hPa West 5.8 km/h 5.8 km/h 63% 0.0 mm
16:38 20.7 °C 14.0 °C 1009.0 hPa West 4.3 km/h 7.2 km/h 64% 0.0 mm
16:43 20.6 °C 13.0 °C 1009.0 hPa NW 6.1 km/h 9.3 km/h 63% 0.0 mm
16:48 20.6 °C 13.0 °C 1009.0 hPa WSW 4.0 km/h 9.7 km/h 63% 0.0 mm
16:53 20.7 °C 14.0 °C 1009.0 hPa West 5.5 km/h 9.7 km/h 64% 0.0 mm
16:58 20.8 °C 14.0 °C 1009.0 hPa West 4.0 km/h 9.0 km/h 64% 0.0 mm
17:03 20.9 °C 14.0 °C 1009.0 hPa West 3.2 km/h 6.4 km/h 63% 0.0 mm
17:08 20.9 °C 14.0 °C 1009.0 hPa WNW 6.1 km/h 7.9 km/h 63% 0.0 mm
17:13 20.8 °C 13.0 °C 1009.0 hPa West 9.3 km/h 9.3 km/h 62% 0.0 mm
17:18 20.7 °C 13.0 °C 1009.0 hPa West 2.1 km/h 9.3 km/h 62% 0.0 mm
17:23 20.7 °C 13.0 °C 1009.0 hPa Calm   9.0 km/h 63% 0.0 mm
17:28 20.6 °C 14.0 °C 1009.0 hPa West 5.8 km/h 9.0 km/h 64% 0.0 mm
17:29 20.6 °C 14.0 °C 1009.0 hPa West 5.8 km/h 9.0 km/h 64% 0.0 mm
17:34 20.5 °C 14.0 °C 1009.0 hPa NE 6.1 km/h 11.1 km/h 65% 0.0 mm
17:39 20.4 °C 14.0 °C 1009.0 hPa Calm   11.1 km/h 65% 0.0 mm
17:44 20.3 °C 14.0 °C 1009.0 hPa WSW 7.6 km/h 8.7 km/h 66% 0.0 mm
17:49 20.2 °C 14.0 °C 1009.0 hPa NW 4.3 km/h 9.0 km/h 66% 0.0 mm
17:54 20.2 °C 14.0 °C 1009.0 hPa West 5.0 km/h 9.0 km/h 67% 0.0 mm
17:59 20.2 °C 14.0 °C 1010.0 hPa West 5.0 km/h 9.3 km/h 67% 0.0 mm
18:04 20.1 °C 14.0 °C 1010.0 hPa Calm   9.3 km/h 68% 0.0 mm
18:09 20.1 °C 14.0 °C 1010.0 hPa West 8.7 km/h 9.0 km/h 69% 0.0 mm
18:14 20.1 °C 14.0 °C 1009.0 hPa Calm   9.0 km/h 70% 0.0 mm
18:19 20.0 °C 15.0 °C 1009.0 hPa Calm   8.7 km/h 71% 0.0 mm
18:24 19.8 °C 15.0 °C 1009.0 hPa NW 5.8 km/h 6.4 km/h 72% 0.0 mm
18:29 19.6 °C 15.0 °C 1009.0 hPa Calm   6.9 km/h 73% 0.0 mm
18:34 19.5 °C 15.0 °C 1009.0 hPa Calm   6.9 km/h 73% 0.0 mm
18:39 19.0 °C 15.0 °C 1009.0 hPa SW 9.0 km/h 15.4 km/h 78% 0.0 mm
18:44 18.2 °C 15.0 °C 1009.0 hPa South 4.7 km/h 15.4 km/h 79% 0.3 mm
18:49 17.6 °C 15.0 °C 1009.0 hPa SSW 19.8 km/h 23.0 km/h 82% 0.5 mm
18:54 17.0 °C 14.0 °C 1009.0 hPa West 9.7 km/h 23.0 km/h 82% 0.5 mm
18:59 16.7 °C 14.0 °C 1009.0 hPa SSW 6.9 km/h 21.2 km/h 84% 1.5 mm
19:04 16.5 °C 14.0 °C 1009.0 hPa West 4.7 km/h 16.3 km/h 85% 1.5 mm
19:09 16.4 °C 14.0 °C 1009.0 hPa West 4.3 km/h 11.9 km/h 87% 1.5 mm
19:14 16.3 °C 15.0 °C 1009.0 hPa West 4.0 km/h 10.1 km/h 89% 1.5 mm
19:19 16.2 °C 15.0 °C 1009.0 hPa West 2.6 km/h 9.3 km/h 89% 1.5 mm
19:24 16.0 °C 14.0 °C 1009.0 hPa Calm   9.3 km/h 89% 1.5 mm
19:30 15.9 °C 14.0 °C 1010.0 hPa Calm   7.9 km/h 90% 1.5 mm
19:35 15.9 °C 14.0 °C 1010.0 hPa Calm   2.6 km/h 90% 1.5 mm
19:40 15.8 °C 14.0 °C 1010.0 hPa Calm     90% 1.5 mm
19:45 15.7 °C 14.0 °C 1010.0 hPa Calm     91% 1.3 mm
19:50 15.6 °C 14.0 °C 1010.0 hPa Calm     91% 1.0 mm
19:55 15.6 °C 14.0 °C 1010.0 hPa Calm     91% 1.0 mm
20:00 15.5 °C 14.0 °C 1010.0 hPa Calm   6.1 km/h 91% 0.0 mm
20:05 15.5 °C 14.0 °C 1010.0 hPa Calm   6.1 km/h 92% 0.0 mm
20:10 15.5 °C 14.0 °C 1010.0 hPa Calm     92% 0.0 mm
20:15 15.4 °C 14.0 °C 1010.0 hPa Calm   2.1 km/h 92% 0.3 mm
20:20 15.4 °C 14.0 °C 1010.0 hPa Calm   2.1 km/h 93% 0.3 mm
20:25 15.5 °C 15.0 °C 1010.0 hPa Calm     93% 0.3 mm
20:30 15.4 °C 14.0 °C 1010.0 hPa Calm     93% 0.3 mm
20:35 15.4 °C 14.0 °C 1010.0 hPa Calm     93% 0.3 mm
20:40 15.4 °C 14.0 °C 1010.0 hPa Calm     94% 0.3 mm
20:45 15.5 °C 15.0 °C 1010.0 hPa Calm     94% 0.3 mm
20:50 15.5 °C 15.0 °C 1010.0 hPa Calm     94% 0.3 mm
20:56 15.4 °C 14.0 °C 1010.0 hPa Calm     94% 0.3 mm
21:01 15.5 °C 15.0 °C 1010.0 hPa Calm     94% 0.3 mm
21:06 15.5 °C 15.0 °C 1010.0 hPa Calm     94% 0.3 mm
21:11 15.6 °C 15.0 °C 1010.0 hPa Calm   1.8 km/h 94% 0.3 mm
21:16 15.5 °C 15.0 °C 1010.0 hPa Calm   1.8 km/h 94% 0.0 mm
21:21 15.5 °C 15.0 °C 1010.0 hPa Calm   1.8 km/h 94% 0.0 mm
21:26 15.6 °C 15.0 °C 1011.1 hPa Calm   1.8 km/h 95% 0.0 mm
21:31 15.6 °C 15.0 °C 1011.1 hPa Calm   1.4 km/h 95% 0.0 mm
21:36 15.6 °C 15.0 °C 1011.1 hPa Calm   1.4 km/h 95% 0.0 mm
21:41 15.6 °C 15.0 °C 1011.1 hPa Calm   3.5 km/h 95% 0.0 mm
21:46 15.5 °C 15.0 °C 1011.1 hPa Calm   4.0 km/h 95% 0.0 mm
21:51 15.4 °C 15.0 °C 1011.1 hPa SW 1.4 km/h 6.1 km/h 95% 0.3 mm
21:53 15.4 °C 15.0 °C 1011.1 hPa Calm   6.1 km/h 95% 0.3 mm
21:58 15.4 °C 15.0 °C 1011.1 hPa SSW 2.1 km/h 5.5 km/h 95% 0.3 mm
22:03 15.4 °C 15.0 °C 1011.1 hPa Calm   6.1 km/h 95% 0.3 mm
22:08 15.3 °C 15.0 °C 1011.1 hPa Calm   6.1 km/h 96% 0.3 mm
22:13 15.3 °C 15.0 °C 1011.1 hPa Calm   4.0 km/h 96% 0.3 mm
22:18 15.3 °C 15.0 °C 1011.1 hPa Calm     96% 0.3 mm
22:23 15.3 °C 15.0 °C 1011.1 hPa Calm   2.1 km/h 96% 0.3 mm
22:28 15.3 °C 15.0 °C 1011.1 hPa Calm   4.7 km/h 96% 0.3 mm
22:33 15.2 °C 15.0 °C 1011.1 hPa Calm   4.7 km/h 96% 0.3 mm
22:38 15.2 °C 15.0 °C 1011.1 hPa Calm   5.0 km/h 96% 0.3 mm
22:44 15.2 °C 15.0 °C 1011.1 hPa Calm   6.4 km/h 96% 0.3 mm
22:49 15.2 °C 15.0 °C 1011.1 hPa Calm   6.4 km/h 96% 0.0 mm
22:54 15.2 °C 15.0 °C 1011.1 hPa Calm   5.0 km/h 96% 0.0 mm
22:59 15.2 °C 15.0 °C 1011.1 hPa Calm     96% 0.0 mm
23:04 15.2 °C 15.0 °C 1011.1 hPa SSW 1.4 km/h 1.4 km/h 97% 0.0 mm
23:09 15.2 °C 15.0 °C 1011.1 hPa Calm   5.5 km/h 97% 0.0 mm
23:14 15.1 °C 15.0 °C 1011.1 hPa Calm   5.5 km/h 97% 0.0 mm
23:19 15.1 °C 15.0 °C 1011.1 hPa Calm   4.7 km/h 97% 0.0 mm
23:24 15.2 °C 15.0 °C 1011.1 hPa SW 5.0 km/h 6.4 km/h 97% 0.0 mm
23:29 15.2 °C 15.0 °C 1011.1 hPa WSW 6.4 km/h 9.3 km/h 97% 0.0 mm
23:34 15.2 °C 15.0 °C 1011.1 hPa SW 1.8 km/h 10.5 km/h 97% 0.0 mm
23:39 15.2 °C 15.0 °C 1011.1 hPa SSW 10.5 km/h 12.2 km/h 97% 0.0 mm
23:44 15.2 °C 15.0 °C 1011.1 hPa SSW 9.0 km/h 12.2 km/h 97% 0.0 mm
23:49 15.2 °C 15.0 °C 1011.1 hPa SSW 6.4 km/h 11.9 km/h 97% 0.0 mm
23:54 15.2 °C 15.0 °C 1011.1 hPa West 7.9 km/h 10.1 km/h 97% 0.0 mm
23:55 15.2 °C 15.0 °C 1011.1 hPa SSW 5.8 km/h 10.1 km/h 97% 0.0 mm
Données Historique de Météo Turbie

Mise a jour : 19/06/2018 08:24:11
Généré par Cumulus 1.9.4 (1099)